FW8701 Weather Reports


time (UTC)temp
C
wind
direction
speed
KPH
gust
KPH
rain 1hr
cm
rain 24hr
cm
rain mn
cm
humidity
%
barometer
mb
20260507124101 10 190 0.0 1.6 0.00 0.00 0.00 96 1010.3
20260507123559 11 192 0.0 0.0 0.00 0.00 0.00 96 1010.0
20260507123055 11 192 0.0 0.0 0.00 0.00 0.00 96 1010.5
20260507122550 11 218 0.0 0.0 0.00 0.00 0.00 96 1010.3
20260507122046 11 197 0.0 0.0 0.00 0.00 0.00 96 1010.4
20260507121542 11 197 0.0 0.0 0.00 0.00 0.00 96 1010.4
20260507121039 11 193 0.0 0.0 0.00 0.00 0.00 96 1010.4
20260507120535 11 191 0.0 0.0 0.00 0.00 0.00 96 1010.3
20260507120032 11 190 0.0 0.0 0.00 0.00 0.00 96 1010.3
20260507115528 11 148 0.0 0.0 0.00 0.00 0.00 95 1010.3
20260507115024 11 208 0.0 0.0 0.00 0.00 0.00 95 1010.4
20260507114520 11 194 0.0 0.0 0.00 0.00 0.00 96 1010.4
20260507114018 11 195 0.0 0.0 0.00 0.00 0.00 96 1010.6
20260507113515 11 185 0.0 0.0 0.00 0.00 0.00 96 1010.4
20260507113012 11 199 0.0 0.0 0.00 0.00 0.00 96 1010.6
20260507112509 11 205 0.0 0.0 0.00 0.00 0.00 96 1010.4
20260507112006 11 210 0.0 0.0 0.00 0.00 0.00 96 1010.6
20260507111504 11 196 0.0 0.0 0.00 0.00 0.00 96 1010.5
20260507110959 11 243 1.6 1.6 0.00 0.00 0.00 96 1010.7
20260507110456 11 187 0.0 0.0 0.00 0.00 0.00 96 1010.6
20260507105952 11 187 0.0 0.0 0.00 0.00 0.00 96 1010.6
20260507105449 11 187 0.0 0.0 0.00 0.00 0.00 96 1010.5
20260507104946 11 187 0.0 0.0 0.00 0.00 0.00 96 1010.4
20260507104443 11 187 0.0 0.0 0.00 0.00 0.00 96 1010.6
20260507103938 11 186 0.0 0.0 0.00 0.00 0.00 96 1010.6
20260507103436 11 189 0.0 0.0 0.00 0.00 0.00 96 1010.6
20260507102932 11 189 0.0 0.0 0.00 0.00 0.00 96 1010.4
20260507102429 11 192 0.0 0.0 0.00 0.00 0.00 96 1010.4
20260507101925 11 189 0.0 0.0 0.00 0.00 0.00 96 1010.5
20260507101420 11 192 0.0 0.0 0.00 0.00 0.00 96 1010.4
20260507100917 11 194 0.0 0.0 0.00 0.00 0.00 96 1010.5
20260507100414 11 200 0.0 0.0 0.00 0.00 0.00 96 1010.6
20260507095913 11 202 0.0 0.0 0.00 0.00 0.00 96 1010.5
20260507095409 11 199 0.0 0.0 0.00 0.00 0.00 96 1010.4
20260507094907 11 197 0.0 0.0 0.00 0.00 0.00 96 1010.3
20260507094403 11 197 0.0 0.0 0.00 0.00 0.00 96 1010.6
20260507093900 11 197 0.0 0.0 0.00 0.00 0.00 96 1010.6
20260507093358 11 206 0.0 0.0 0.00 0.00 0.00 96 1010.6
20260507092856 11 195 0.0 0.0 0.00 0.00 0.00 96 1010.7
20260507092352 11 198 0.0 1.6 0.00 0.00 0.00 95 1010.5
20260507091848 11 195 0.0 0.0 0.00 0.00 0.00 96 1010.8
20260507091345 11 195 0.0 0.0 0.00 0.00 0.00 96 1010.6
20260507090840 11 195 0.0 0.0 0.00 0.00 0.00 95 1010.9
20260507090337 11 193 0.0 0.0 0.00 0.00 0.00 95 1010.8
20260507085834 11 191 0.0 0.0 0.00 0.00 0.00 95 1011.0
20260507085331 11 186 0.0 0.0 0.00 0.00 0.00 95 1011.0
20260507084828 11 214 0.0 0.0 0.00 0.00 0.00 95 1010.9
20260507084325 11 187 0.0 0.0 0.00 0.00 0.00 95 1011.1
20260507083822 11 187 0.0 0.0 0.00 0.00 0.00 95 1010.9
20260507083318 11 169 0.0 0.0 0.00 0.00 0.00 95 1011.2
20260507082815 11 185 0.0 0.0 0.00 0.00 0.00 96 1011.0
20260507082310 11 185 0.0 0.0 0.00 0.00 0.00 96 1011.0
20260507081808 11 185 0.0 0.0 0.00 0.00 0.00 96 1011.1
20260507081303 11 187 0.0 0.0 0.00 0.00 0.00 97 1011.0
20260507080800 11 190 0.0 0.0 0.00 0.00 0.00 97 1011.3
20260507080257 11 190 0.0 0.0 0.00 0.00 0.00 97 1011.3
20260507075752 11 190 0.0 0.0 0.00 0.00 0.00 97 1011.3
20260507075248 11 190 0.0 0.0 0.00 0.00 0.00 97 1011.2
20260507074744 11 190 0.0 0.0 0.00 0.00 0.00 97 1011.2
20260507074243 11 190 0.0 0.0 0.00 0.00 0.00 98 1011.4
20260507073739 11 190 0.0 0.0 0.00 0.00 0.00 98 1011.2
20260507073236 11 189 0.0 0.0 0.00 0.00 0.00 98 1011.4
20260507072734 11 196 0.0 0.0 0.00 0.00 0.00 99 1011.3
20260507072231 11 201 0.0 0.0 0.00 0.00 0.00 99 1011.3
20260507071728 10 195 0.0 0.0 0.00 0.00 0.00 99 1011.4
20260507071224 10 195 0.0 0.0 0.00 0.00 0.00 99 1011.3
20260507070722 10 195 0.0 0.0 0.00 0.00 0.00 98 1011.3
20260507070219 10 193 0.0 0.0 0.00 0.00 0.00 98 1011.3
20260507065715 10 195 0.0 0.0 0.00 0.00 0.00 98 1011.2
20260507065212 10 195 0.0 0.0 0.00 0.00 0.00 98 1011.1
20260507064709 10 195 0.0 0.0 0.00 0.00 0.00 98 1011.1
20260507064208 10 195 0.0 0.0 0.00 0.00 0.00 98 1011.2
20260507063705 10 195 0.0 0.0 0.00 0.00 0.00 98 1011.2
20260507063201 10 190 0.0 0.0 0.00 0.00 0.00 98 1011.2
20260507062659 10 206 0.0 0.0 0.00 0.00 0.00 98 1011.1
20260507062156 10 206 0.0 0.0 0.00 0.00 0.00 97 1011.3
20260507061654 10 206 0.0 0.0 0.00 0.00 0.00 97 1011.3
20260507061152 10 206 0.0 0.0 0.00 0.00 0.00 97 1011.3
20260507060649 11 206 0.0 0.0 0.00 0.00 0.00 97 1011.4
20260507060146 11 206 0.0 0.0 0.00 0.00 0.00 97 1011.2
20260507055641 11 206 0.0 0.0 0.00 0.00 0.00 96 1011.2
20260507055138 11 206 0.0 0.0 0.00 0.00 0.00 96 1011.2
20260507054633 11 206 0.0 0.0 0.00 0.00 0.00 96 1011.1
20260507054131 11 207 0.0 0.0 0.00 0.00 0.00 95 1011.0
20260507053629 11 206 0.0 0.0 0.00 0.00 0.00 95 1011.3
20260507053126 11 206 0.0 0.0 0.00 0.00 0.00 95 1011.3
20260507052625 11 206 0.0 0.0 0.00 0.00 0.00 94 1011.3
20260507052120 11 207 0.0 0.0 0.00 0.00 0.00 94 1011.3
20260507051618 12 214 0.0 0.0 0.00 0.00 0.00 93 1011.3
20260507051115 12 179 0.0 0.0 0.00 0.00 0.00 93 1011.3
20260507050612 12 207 0.0 1.6 0.00 0.00 0.00 92 1011.3
20260507050108 12 253 1.6 3.2 0.00 0.00 0.00 92 1011.5
20260507045605 12 190 0.0 1.6 0.00 0.00 0.00 92 1011.5
20260507045102 12 201 0.0 4.8 0.00 0.00 0.00 91 1011.4
20260507044559 12 193 0.0 0.0 0.00 0.00 0.00 92 1011.4
20260507044056 12 189 0.0 1.6 0.00 0.00 0.00 91 1011.1
20260507043551 12 164 1.6 3.2 0.00 0.00 0.00 91 1011.2
20260507043049 12 221 0.0 1.6 0.00 0.00 0.00 91 1011.4
20260507042544 12 187 0.0 0.0 0.00 0.00 0.00 91 1011.1
20260507042040 12 183 0.0 1.6 0.00 0.00 0.00 91 1011.1
20260507041538 12 185 0.0 3.2 0.00 0.00 0.00 90 1011.1
20260507041034 13 177 3.2 4.8 0.00 0.00 0.00 90 1011.0
20260507040531 13 212 1.6 3.2 0.00 0.00 0.00 90 1011.3
20260507040027 13 228 3.2 4.8 0.00 0.00 0.00 89 1010.9
20260507035523 13 78 3.2 3.2 0.00 0.00 0.00 89 1011.0
20260507035020 13 195 1.6 4.8 0.00 0.00 0.00 90 1010.8
20260507034517 13 200 0.0 1.6 0.00 0.00 0.00 89 1010.8
20260507034015 13 183 0.0 1.6 0.00 0.00 0.00 89 1010.8
20260507033512 13 209 0.0 3.2 0.00 0.00 0.00 89 1010.8
20260507033009 13 48 1.6 1.6 0.00 0.00 0.00 88 1010.7
20260507032506 13 198 0.0 0.0 0.00 0.00 0.00 87 1010.7
20260507032003 13 210 1.6 3.2 0.00 0.00 0.00 87 1010.8
20260507031458 14 191 0.0 1.6 0.00 0.00 0.00 86 1010.7
20260507030955 14 205 0.0 3.2 0.00 0.00 0.00 86 1010.3
20260507030453 14 132 1.6 8.0 0.00 0.00 0.00 85 1010.4
20260507025950 15 188 0.0 3.2 0.00 0.00 0.00 84 1010.6
20260507025447 15 198 0.0 1.6 0.00 0.00 0.00 84 1010.2
20260507024945 15 214 4.8 4.8 0.00 0.00 0.00 83 1010.2
20260507024442 15 182 1.6 4.8 0.00 0.00 0.00 81 1010.2
20260507023938 15 168 0.0 1.6 0.00 0.00 0.00 81 1010.0
20260507023435 15 154 0.0 1.6 0.00 0.00 0.00 81 1010.0
20260507022932 15 133 0.0 4.8 0.00 0.00 0.00 80 1010.1
20260507022429 16 273 4.8 8.0 0.00 0.00 0.00 79 1010.1
20260507021924 16 14 3.2 4.8 0.00 0.00 0.00 77 1010.0
20260507021420 16 193 0.0 1.6 0.00 0.00 0.00 77 1010.0
20260507020918 17 192 1.6 1.6 0.00 0.00 0.00 76 1009.9
20260507020414 17 192 0.0 3.2 0.00 0.00 0.00 75 1009.9
20260507015911 17 174 0.0 4.8 0.00 0.00 0.00 75 1009.8
20260507015410 17 184 0.0 4.8 0.00 0.00 0.00 74 1009.7
20260507014906 18 209 0.0 4.8 0.00 0.00 0.00 72 1009.8
20260507014403 18 208 0.0 1.6 0.00 0.00 0.00 72 1009.7
20260507013859 18 159 0.0 4.8 0.00 0.00 0.00 70 1009.7
20260507013356 20 200 0.0 3.2 0.00 0.00 0.00 68 1009.7
20260507012853 20 216 0.0 1.6 0.00 0.00 0.00 67 1009.5
20260507012349 20 209 0.0 1.6 0.00 0.00 0.00 66 1009.7
20260507011847 20 151 1.6 4.8 0.00 0.00 0.00 66 1009.6
20260507011344 20 189 0.0 3.2 0.00 0.00 0.00 64 1009.7
20260507010843 20 227 1.6 1.6 0.00 0.00 0.00 64 1009.6
20260507010339 21 137 3.2 4.8 0.00 0.00 0.00 63 1009.7
20260507005837 21 120 1.6 4.8 0.00 0.00 0.00 63 1009.7
20260507005333 21 106 1.6 8.0 0.00 0.00 0.00 63 1009.4
20260507004830 21 205 1.6 9.7 0.00 0.00 0.00 63 1009.3
20260507004327 21 147 3.2 8.0 0.00 0.00 0.00 63 1009.3
20260507003824 21 264 1.6 3.2 0.00 0.00 0.00 61 1009.4
20260507003320 21 313 3.2 8.0 0.00 0.00 0.00 62 1009.1
20260507002815 21 238 1.6 12.9 0.00 0.00 0.00 63 1009.2
20260507002311 22 123 1.6 9.7 0.00 0.00 0.00 59 1009.2
20260507001809 22 228 4.8 4.8 0.00 0.00 0.00 61 1009.1
20260507001306 22 320 1.6 11.3 0.00 0.00 0.00 58 1009.2
20260507000802 22 203 0.0 1.6 0.00 0.00 0.00 59 1009.2
20260507000259 23 43 1.6 9.7 0.00 0.00 0.00 59 1009.2
20260506235754 23 141 3.2 9.7 0.00 0.00 0.00 57 1009.1
20260506235250 23 128 1.6 9.7 0.00 0.00 0.00 57 1009.2
20260506234748 24 215 0.0 4.8 0.00 0.00 0.00 56 1009.2
20260506234245 23 205 0.0 1.6 0.00 0.00 0.00 60 1008.9
20260506233742 22 317 4.8 11.3 0.00 0.00 0.00 59 1009.3
20260506233238 23 189 0.0 9.7 0.00 0.00 0.00 58 1009.1
20260506232735 23 235 3.2 4.8 0.00 0.00 0.00 59 1009.2
20260506232230 22 207 0.0 4.8 0.00 0.00 0.00 58 1009.1
20260506231727 22 107 4.8 17.7 0.00 0.00 0.00 58 1009.1
20260506231226 22 210 0.0 4.8 0.00 0.00 0.00 58 1009.0
20260506230722 23 118 6.4 12.9 0.00 0.00 0.00 57 1009.2
20260506230219 23 334 6.4 16.1 0.00 0.00 0.00 56 1009.1
20260506225716 23 26 3.2 9.7 0.00 0.00 0.00 56 1009.2
20260506225213 24 226 3.2 14.5 0.00 0.00 0.00 55 1009.4
20260506224709 25 135 1.6 9.7 0.00 0.00 0.00 53 1009.4
20260506224207 25 15 6.4 9.7 0.00 0.00 0.00 54 1009.3
20260506223702 24 171 3.2 9.7 0.00 0.00 0.00 53 1009.4
20260506223158 24 353 6.4 9.7 0.00 0.00 0.00 54 1009.2
20260506222656 25 23 4.8 9.7 0.00 0.00 0.00 53 1009.2
20260506222151 25 245 3.2 12.9 0.00 0.00 0.00 54 1009.2
20260506221649 25 187 0.0 3.2 0.00 0.00 0.00 55 1009.1
20260506221147 25 315 1.6 9.7 0.00 0.00 0.00 52 1009.4
20260506220643 26 215 0.0 3.2 0.00 0.00 0.00 51 1009.4
20260506220139 25 20 6.4 11.3 0.00 0.00 0.00 52 1009.5
20260506215636 25 155 1.6 11.3 0.00 0.00 0.00 51 1009.8
20260506215131 26 207 1.6 3.2 0.00 0.00 0.00 49 1009.5
20260506214628 25 236 0.0 3.2 0.00 0.00 0.00 52 1009.8
20260506214126 25 266 1.6 11.3 0.00 0.00 0.00 52 1009.9
20260506213624 26 253 3.2 4.8 0.00 0.00 0.00 48 1009.7
20260506213121 26 220 0.0 1.6 0.00 0.00 0.00 50 1009.8
20260506212618 25 103 1.6 8.0 0.00 0.00 0.00 50 1010.0
20260506212113 25 107 1.6 8.0 0.00 0.00 0.00 50 1010.1
20260506211608 25 218 6.4 8.0 0.00 0.00 0.00 52 1009.9
20260506211106 24 202 1.6 3.2 0.00 0.00 0.00 48 1010.0
20260506210603 25 29 6.4 11.3 0.00 0.00 0.00 47 1010.2
20260506210059 25 63 1.6 3.2 0.00 0.00 0.00 47 1010.0
20260506205556 25 259 0.0 1.6 0.00 0.00 0.00 48 1010.2
20260506205051 25 205 1.6 3.2 0.00 0.00 0.00 48 1010.1
20260506204549 25 38 4.8 4.8 0.00 0.00 0.00 49 1010.1
20260506204045 25 355 6.4 8.0 0.00 0.00 0.00 49 1010.2
20260506203544 25 167 1.6 3.2 0.00 0.00 0.00 49 1010.3
20260506203040 25 182 1.6 1.6 0.00 0.00 0.00 48 1010.3
20260506202538 25 35 3.2 3.2 0.00 0.00 0.00 45 1010.4
20260506202033 25 293 1.6 1.6 0.00 0.00 0.00 46 1010.4
20260506201531 24 204 1.6 1.6 0.00 0.00 0.00 49 1010.5
20260506201022 23 193 1.6 8.0 0.00 0.00 0.00 52 1010.7
20260506200518 23 36 3.2 4.8 0.00 0.00 0.00 50 1010.7
20260506200015 23 312 0.0 3.2 0.00 0.00 0.00 53 1010.6
20260506195513 23 224 0.0 1.6 0.00 0.00 0.00 51 1010.9
20260506195009 23 194 0.0 3.2 0.00 0.00 0.00 51 1011.0
20260506194507 22 183 0.0 4.8 0.00 0.00 0.00 54 1010.8
20260506194002 22 109 1.6 4.8 0.00 0.00 0.00 54 1010.9
20260506193500 23 199 3.2 3.2 0.00 0.00 0.00 53 1010.7
20260506192956 22 210 0.0 4.8 0.00 0.00 0.00 56 1010.8
20260506192453 22 177 1.6 4.8 0.00 0.00 0.00 56 1010.9
20260506191949 21 197 1.6 4.8 0.00 0.00 0.00 58 1011.2
20260506191446 21 16 0.0 4.8 0.00 0.00 0.00 57 1011.0
20260506190942 22 217 3.2 4.8 0.00 0.00 0.00 56 1011.2
20260506190439 22 224 0.0 4.8 0.00 0.00 0.00 55 1011.2
20260506185931 22 186 0.0 3.2 0.00 0.00 0.00 56 1011.2
20260506185428 21 230 0.0 3.2 0.00 0.00 0.00 57 1011.2
20260506184925 22 180 1.6 4.8 0.00 0.00 0.00 56 1011.3
20260506184422 21 152 1.6 4.8 0.00 0.00 0.00 57 1011.4
20260506183919 21 207 1.6 3.2 0.00 0.00 0.00 56 1011.3
20260506183414 20 232 0.0 1.6 0.00 0.00 0.00 60 1011.5
20260506182911 20 216 0.0 4.8 0.00 0.00 0.00 61 1011.4
20260506182409 20 220 4.8 8.0 0.00 0.00 0.00 61 1011.4
20260506181906 20 207 0.0 8.0 0.00 0.00 0.00 59 1011.6
20260506181404 20 189 3.2 4.8 0.00 0.00 0.00 59 1011.5
20260506180901 20 197 1.6 4.8 0.00 0.00 0.00 59 1011.7
20260506180357 20 198 1.6 3.2 0.00 0.00 0.00 58 1011.6
20260506175854 20 201 1.6 3.2 0.00 0.00 0.00 63 1011.7
20260506175350 20 219 0.0 3.2 0.00 0.00 0.00 64 1011.8
20260506174847 19 213 1.6 3.2 0.00 0.00 0.00 66 1011.8
20260506174345 19 216 3.2 4.8 0.00 0.00 0.00 64 1011.5
20260506173842 20 270 0.0 3.2 0.00 0.00 0.00 64 1011.8
20260506173339 19 201 0.0 3.2 0.00 0.00 0.00 67 1011.8
20260506172836 18 204 0.0 3.2 0.00 0.00 0.00 65 1011.7
20260506172332 17 216 0.0 1.6 0.00 0.00 0.00 69 1011.8
20260506171830 17 205 0.0 1.6 0.00 0.00 0.00 70 1012.0
20260506171327 18 207 0.0 3.2 0.00 0.00 0.00 68 1012.1
20260506170825 18 268 1.6 3.2 0.00 0.00 0.00 68 1012.2
20260506170320 18 181 0.0 1.6 0.00 0.00 0.00 71 1012.0
20260506165820 17 191 1.6 1.6 0.00 0.00 0.00 72 1012.0
20260506165317 16 195 0.0 1.6 0.00 0.00 0.00 75 1011.8
20260506164813 16 191 0.0 1.6 0.00 0.00 0.00 75 1011.9
20260506164310 16 182 0.0 0.0 0.00 0.00 0.00 74 1011.9
20260506163807 15 180 0.0 1.6 0.00 0.00 0.00 77 1012.2
20260506163302 16 189 0.0 1.6 0.00 0.00 0.00 82 1012.2
20260506162758 15 202 0.0 1.6 0.00 0.00 0.00 83 1012.2
20260506162256 15 204 0.0 3.2 0.00 0.00 0.00 78 1012.1
20260506161753 15 213 0.0 1.6 0.00 0.00 0.00 80 1012.1
20260506161250 16 190 0.0 0.0 0.00 0.00 0.00 77 1012.1
20260506160748 16 185 0.0 1.6 0.00 0.00 0.00 73 1012.2
20260506160244 16 192 0.0 0.0 0.00 0.00 0.00 72 1012.3
20260506155743 15 197 0.0 0.0 0.00 0.00 0.00 86 1012.4
20260506155239 14 198 0.0 0.0 0.00 0.00 0.00 86 1012.2
20260506153347 14 189 0.0 0.0 0.00 0.00 0.00 85 1012.2
20260506152843 14 189 0.0 0.0 0.00 0.00 0.00 83 1012.4
20260506152341 15 188 0.0 0.0 0.00 0.00 0.00 81 1012.0
20260506151839 13 191 0.0 0.0 0.00 0.00 0.00 86 1012.0
20260506151335 13 191 0.0 0.0 0.00 0.00 0.00 88 1012.2
20260506150833 12 191 0.0 0.0 0.00 0.00 0.00 92 1012.2
20260506150329 12 193 0.0 0.0 0.00 0.00 0.00 94 1012.3
20260506145826 11 193 0.0 0.0 0.00 0.00 0.00 96 1012.2
20260506145323 11 193 0.0 0.0 0.00 0.00 0.00 96 1012.3
20260506144820 11 197 0.0 0.0 0.00 0.00 0.00 96 1012.3
20260506144317 11 196 0.0 0.0 0.00 0.00 0.00 96 1012.5
20260506143816 11 196 0.0 0.0 0.00 0.00 0.00 97 1012.4
20260506143312 11 197 0.0 0.0 0.00 0.00 0.00 97 1012.4
20260506142810 11 197 0.0 0.0 0.00 0.00 0.00 97 1012.4
20260506142308 11 197 0.0 0.0 0.00 0.00 0.00 98 1012.4
20260506141806 11 195 0.0 0.0 0.00 0.00 0.00 98 1012.4
20260506141304 11 195 0.0 0.0 0.00 0.00 0.00 98 1012.3
20260506140801 11 195 0.0 0.0 0.00 0.00 0.00 98 1012.5
20260506140258 11 195 0.0 0.0 0.00 0.00 0.00 99 1012.2
20260506135755 10 195 0.0 0.0 0.00 0.00 0.00 99 1012.1
20260506135251 10 195 0.0 0.0 0.00 0.00 0.00 99 1011.9
20260506134748 10 195 0.0 0.0 0.00 0.00 0.00 99 1012.0
20260506134244 10 195 0.0 0.0 0.00 0.00 0.00 99 1011.9
20260506133741 10 197 0.0 0.0 0.00 0.00 0.00 99 1011.8
20260506133238 10 193 0.0 0.0 0.00 0.00 0.00 99 1011.9
20260506132735 10 193 0.0 0.0 0.00 0.00 0.00 99 1011.7
20260506132232 10 193 0.0 0.0 0.00 0.00 0.00 99 1011.7
20260506131730 10 193 0.0 0.0 0.00 0.00 0.00 99 1011.5
20260506131226 10 192 0.0 0.0 0.00 0.00 0.00 99 1011.7
20260506130723 10 191 0.0 0.0 0.00 0.00 0.00 99 1011.8
20260506130220 10 191 0.0 0.0 0.00 0.00 0.00 98 1011.5
20260506125718 10 191 0.0 0.0 0.00 0.00 0.00 98 1011.4
20260506125215 10 191 0.0 0.0 0.00 0.00 0.00 98 1011.3
20260506124713 10 191 0.0 0.0 0.00 0.00 0.00 98 1011.5
20260506124211 10 191 0.0 0.0 0.00 0.00 0.00 98 1011.4